[[{"header":{"parameterUnit":"m.s-1","parameterCategory":1,"la1":30.2992,"la2":30.254,"lo1":-89.0895,"lo2":-89.0443,"dy":0.0025,"dx":0.0025,"nx":19,"ny":19,"refTime":"2026-04-20T03:00:00:Z","depth":0,"parameterNumber":2,"parameterNumberName":"U-component_of_WINDS"},"data":[0,0,0,-3.2973,-3.2978,-3.3145,-3.3146,-3.3403,-3.3406,0,0,0,0,0,0,0,0,0,0,0,-3.295,-3.2952,-3.2973,-3.2978,-3.3145,-3.3146,-3.3403,-3.3406,0,0,0,0,0,0,0,0,0,0,0,-3.2949,-3.2952,-3.2955,-3.2979,-3.3145,-3.3146,-3.3402,-3.326,0,0,0,0,0,0,0,0,0,0,-3.309,-3.3094,-3.2951,-3.2955,-3.298,-3.3145,-3.3146,-3.3253,-3.3269,-3.3346,0,-3.342,0,-3.3417,-3.3426,-3.3427,0,0,0,-3.2959,-3.3081,-3.3102,-3.2956,-3.2982,-3.3145,-3.3064,-3.3262,-3.328,-3.3368,-3.3424,-3.3432,-3.3422,-3.3428,-3.3429,-3.3935,-3.3938,0,0,-3.295,-3.2994,-3.3089,-3.3115,-3.3092,-3.3059,-3.307,-3.3272,-3.3336,-3.3424,-3.3437,-3.3426,-3.343,-3.3432,-3.3931,-3.3935,0,0,0,-3.2936,-3.2989,-3.3004,-3.3106,-3.3133,-3.3064,-3.3077,-3.3327,-3.3328,-3.344,-3.3429,-3.3432,-3.3435,-3.3928,-3.3933,-3.4141,0,0,0,-3.2929,-3.298,-3.3001,-3.303,-3.313,-3.3232,-3.3128,-3.3314,-3.3336,-3.3428,-3.3432,-3.3438,-3.3924,-3.393,-3.4128,-3.4234,0,0,0,-3.293,-3.298,-3.3013,-3.3032,-3.3105,-3.3228,-3.324,-3.3318,-3.3331,-3.3427,-3.3439,-3.3922,-3.3929,-3.4116,-3.4214,-3.4385,0,0,0,-3.2944,-3.3195,-3.3017,-3.3292,-3.3105,-3.3353,-3.3238,-3.3421,-3.3528,-3.3433,-3.3925,-3.3932,-3.4112,-3.4202,-3.4372,-3.4541,-3.4613,0,0,-3.3285,-3.3237,-3.3395,-3.3242,-3.3534,-3.3324,-3.3647,-3.3702,-3.367,-3.3848,-3.386,-3.4132,-3.4213,-3.4382,-3.4993,-3.5051,0,0,0,-3.3519,-3.3635,-3.3702,-3.3806,-3.3854,-3.3905,-3.3905,-3.3925,-3.4075,-3.377,-3.4234,-3.4281,-3.4378,-3.4458,-3.4507,-3.459,-3.3969,-3.3968,-3.3967,-3.4072,-3.4016,-3.4275,-3.424,-3.4342,-3.434,-3.4419,-3.4446,-3.4359,-3.4469,-3.4525,-3.4902,-3.4996,-3.5033,-3.512,-3.4603,-3.4604,-3.4604,-3.4605,-3.4572,-3.473,-3.4606,-3.4815,-3.4754,-3.4929,-3.4935,-3.4868,-3.5023,-3.4856,-3.4939,-3.4768,-3.5099,-3.5172,-3.462,-3.4618,-3.4616,-3.4614,-3.4613,-3.4935,-3.5,-3.5019,-3.5164,-3.5282,-3.5234,-3.539,-3.5326,-3.5268,-3.535,-3.5405,-3.5401,-3.5395,-3.5379,-3.538,-3.5381,-3.5382,-3.5383,-3.5384,-3.5306,-3.532,-3.5458,-3.5529,-3.5587,-3.5657,-3.5654,-3.5711,-3.5758,-3.57,-3.57,-3.5607,-3.5138,-3.5026,-3.5405,-3.5401,-3.5398,-3.5396,-3.5395,-3.5848,-3.5714,-3.5929,-3.5988,-3.6065,-3.6189,-3.6103,-3.6224,-3.626,-3.6339,-3.6225,-3.5886,-3.5834,-3.5794,-3.5702,-3.6232,-3.6232,-3.6232,-3.6232,-3.6159,-3.6123,-3.6329,-3.6428,-3.6517,-3.6462,-3.6708,-3.6708,-3.6686,-3.6706,-3.6618,-3.6487,-3.6449,-3.6419,-3.6366,-3.6279,-3.6944,-3.6945,-3.6946,-3.6492,-3.6462,-3.6685,-3.6661,-3.6716,-3.6765,-3.6996,-3.7115,-3.7062,-3.6973,-3.6722,-3.6692,-3.6479,-3.6411,-3.6326,-3.6244,-3.6083,0,0]},{"header":{"parameterUnit":"m.s-1","parameterCategory":1,"la1":30.2992,"la2":30.254,"lo1":-89.0895,"lo2":-89.0443,"dy":0.0025,"dx":0.0025,"nx":19,"ny":19,"refTime":"2026-04-20T03:00:00:Z","depth":0,"parameterNumber":3,"parameterNumberName":"V-component_of_WINDS"},"data":[0,0,0,-4.7294,-4.7297,-4.7441,-4.7442,-4.764,-4.7642,0,0,0,0,0,0,0,0,0,0,0,-4.7263,-4.7264,-4.7294,-4.7298,-4.7441,-4.7442,-4.7639,-4.7642,0,0,0,0,0,0,0,0,0,0,0,-4.7262,-4.7264,-4.7266,-4.7298,-4.7441,-4.7442,-4.7639,-4.7525,0,0,0,0,0,0,0,0,0,0,-4.7382,-4.7365,-4.7263,-4.7266,-4.7299,-4.7441,-4.7442,-4.7519,-4.7532,-4.7581,0,-4.7631,0,-4.764,-4.7656,-4.7657,0,0,0,-4.7288,-4.7355,-4.7383,-4.7267,-4.73,-4.7441,-4.7374,-4.7526,-4.7541,-4.7598,-4.7634,-4.7641,-4.7643,-4.7657,-4.7659,-4.7981,-4.7983,0,0,-4.728,-4.7294,-4.7373,-4.7394,-4.7376,-4.7369,-4.7378,-4.7534,-4.7573,-4.7635,-4.7645,-4.7646,-4.7659,-4.7661,-4.7979,-4.7982,0,0,0,-4.7264,-4.7289,-4.7313,-4.7386,-4.7411,-4.7374,-4.7384,-4.7566,-4.7573,-4.7647,-4.7649,-4.766,-4.7663,-4.7977,-4.798,-4.8091,0,0,0,-4.7258,-4.7279,-4.731,-4.732,-4.7409,-4.7491,-4.7413,-4.7562,-4.7579,-4.7648,-4.766,-4.7665,-4.7975,-4.7979,-4.8083,-4.814,0,0,0,-4.7249,-4.7278,-4.7303,-4.7321,-4.7384,-4.7488,-4.7504,-4.7565,-4.7581,-4.7657,-4.7665,-4.7974,-4.7978,-4.8076,-4.8129,-4.8229,0,0,0,-4.7243,-4.7399,-4.7305,-4.7479,-4.7383,-4.7556,-4.7503,-4.7631,-4.7709,-4.7661,-4.7975,-4.798,-4.8074,-4.8122,-4.8222,-4.8316,-4.8357,0,0,-4.7447,-4.7424,-4.7525,-4.7446,-4.764,-4.7533,-4.7742,-4.78,-4.7793,-4.7918,-4.7925,-4.8085,-4.8128,-4.8228,-4.858,-4.8612,0,0,0,-4.7595,-4.7668,-4.7716,-4.7793,-4.7842,-4.7887,-4.7911,-4.7932,-4.8038,-4.7861,-4.8148,-4.8173,-4.8231,-4.8275,-4.8303,-4.835,-4.8001,-4.8,-4.8,-4.7904,-4.7888,-4.8054,-4.8055,-4.813,-4.8153,-4.8211,-4.8242,-4.8203,-4.8271,-4.8308,-4.8524,-4.8577,-4.8597,-4.8648,-4.8357,-4.8357,-4.8357,-4.8358,-4.8202,-4.8303,-4.8247,-4.8389,-4.837,-4.8487,-4.8514,-4.8482,-4.8586,-4.8495,-4.8545,-4.8447,-4.8634,-4.8677,-4.8366,-4.8364,-4.8363,-4.8363,-4.8362,-4.8403,-4.8449,-4.8472,-4.858,-4.8664,-4.8658,-4.8761,-4.8739,-4.8719,-4.8769,-4.8805,-4.8803,-4.8798,-4.8787,-4.8788,-4.8789,-4.879,-4.879,-4.8791,-4.8603,-4.8626,-4.8717,-4.8781,-4.8826,-4.8883,-4.8906,-4.8949,-4.899,-4.8966,-4.8966,-4.892,-4.8655,-4.8589,-4.8802,-4.88,-4.8799,-4.8798,-4.8797,-4.8911,-4.8838,-4.8979,-4.9025,-4.9096,-4.918,-4.9151,-4.924,-4.9272,-4.9323,-4.9265,-4.9073,-4.9047,-4.9025,-4.897,-4.9269,-4.9269,-4.9269,-4.9269,-4.9081,-4.9066,-4.9204,-4.9278,-4.9348,-4.9335,-4.9491,-4.951,-4.9516,-4.9534,-4.9487,-4.9413,-4.9391,-4.9378,-4.9348,-4.9296,-4.9671,-4.9672,-4.9672,-4.9269,-4.9259,-4.9399,-4.9407,-4.946,-4.9506,-4.9652,-4.9737,-4.9729,-4.9688,-4.9548,-4.9531,-4.941,-4.9371,-4.9328,-4.9283,-4.9188,0,0]}]]